Regional Weather Roundup
Issued by NWS Kansas City/Pleasant Hill, MO

Home | Current Version | Previous Version | Graphics & Text | Print | Product List | Glossary Off
Versions: 1 2 3 4 5 6 7 8 9 10 11 12 13 14 15 16 17 18 19 20 21 22 23 24 25 26 27 28 29 30 31 32 33 34 35 36 37 38 39 40 41 42 43 44 45 46 47 48 49 50

000
ASUS43 KEAX 272210
RWREAX

WEATHER ROUNDUP FOR EASTERN KANSAS AND NORTHWEST MISSOURI
NATIONAL WEATHER SERVICE KANSAS CITY/PLEASANT HILL MO
500 PM CDT WED AUG 27 2014

KSZ040-057-103>105-MOZ028-029-037-043-272300-
...KANSAS CITY METROPOLITAN AREA...

CITY           SKY/WX    TMP DP  RH WIND       PRES   REMARKS
K.C. INTL      PTSUNNY   84  69  60 E13       30.06F
K.C. DOWNTOWN  MOSUNNY   86  71  60 E8        30.03F HX  91
LEES SUMMIT    SUNNY     85  72  65 E12       30.05F HX  91
OLATHE - IXD   MOSUNNY   86  71  60 E12       30.05F HX  91
OLATHE - OJC   MOSUNNY   86  73  65 SE10G17   30.04F HX  93
LAWRENCE       PTSUNNY   89  71  55 E12       30.04F HX  95

$$

MOZ001>008-011>017-020>025-030>033-038>040-044>046-053-054-272300-
...NORTHERN AND CENTRAL MISSOURI...

CITY           SKY/WX    TMP DP  RH WIND       PRES   REMARKS
ST. JOSEPH     MOSUNNY   81  71  71 SE7       30.06F
MOSBY          CLEAR     82  70  65 E8        30.05F
WHITEMAN AFB   MOSUNNY   83  44  25 E5        30.05F
CLINTON        SUNNY     86  75  70 NE12      30.05F HX  95
SEDALIA        PTSUNNY   87  73  62 NE12      30.06F HX  94
WARSAW         NOT AVBL
MARSHALL       PTSUNNY   88  75  66 E9        30.06F HX  97
CHILLICOTHE      N/A     81  71  71 CALM      30.08F
MOBERLY        PTSUNNY   82  70  65 E8        30.08F
KIRKSVILLE     CLOUDY    77  71  82 VRB3      30.10F

$$

MOZ041-047>049-056>058-063>065-088>090-097-272300-
...EASTERN AND SOUTHERN MISSOURI...

CITY           SKY/WX    TMP DP  RH WIND       PRES   REMARKS
ST. LOUIS INTL TSTM      82  63  52 SE24G40   30.07R
SPIRIT OF STL  CLOUDY    88  73  61 E12       30.03R THUNDER HX  95
COLUMBIA       PTSUNNY   82  69  64 E14G21    30.07F
JEFFERSON CITY PTSUNNY   82  65  56 SE8       30.04S
MEXICO         MOSUNNY   86  79  79 N5        30.07F HX  99
HANNIBAL       PTSUNNY   84  72  65 N3        30.08F
ROLLA          CLOUDY    78  67  68 N9        30.05F
LEBANON        PTSUNNY   90  66  45 S3        30.07F HX  92
OSAGE BEACH    PTSUNNY   81  68  65 E6        30.06S
SPRINGFIELD    PTSUNNY   87  67  51 NE16      30.05R HX  90
BRANSON        MOSUNNY   99  63  30 SE8       30.04F HX 100
NEVADA         SUNNY     93  70  46 E12       30.04S HX  99
JOPLIN         MOSUNNY   93  66  40 VRB6      30.02F HX  96
WEST PLAINS    PTSUNNY   93  65  39 NE7       30.05F HX  95

$$

IAZ060-094-KSZ022-034>040-054-083-096-NEZ052-066-093-272300-
...KANSAS...SOUTHEAST NEBRASKA AND IOWA...

CITY           SKY/WX    TMP DP  RH WIND       PRES   REMARKS
TOPEKA         CLOUDY    86  74  67 NE10      30.03F HX  94
MANHATTAN      CLOUDY    88  71  57 E10       30.01F HX  94
EMPORIA        PTSUNNY   91  64  40 E5        30.01F HX  92
CHANUTE        MOSUNNY   96  63  33 S9        30.00F HX  97
WICHITA        CLOUDY    91  64  40 SE10      30.00F HX  92
OMAHA          CLOUDY    74  69  85 NE9       30.06S
LINCOLN        LGT RAIN  76  69  79 SE8       30.06F
FALLS CITY     PTSUNNY   80  71  74 E5        30.06F
LAMONI         CLOUDY    75  70  84 VRB3      30.09F
DES MOINES     CLOUDY    76  67  73 E7        30.08F

$$




USA.gov is the U.S. government's official web portal to all federal, state and local government web resources and services.